Wetbulb
56.15 55.95 56.01 53.92 52.85 56.89 50.88 53.10 50.95 48.22 57.95 61.69 62.74 63.17 63.77 63.51 64.66 67.11 67.53 67.78 68.66 69.27 70.47 71.63 72.29 73.35 73.99 74.80 75.46 75.78 74.99 75.56
55.88 58.12 58.69 55.71 57.69 51.92 51.38 44.54 44.47 51.37 49.53 51.38 59.56 62.39 63.34 63.95 65.16 66.17 66.88 68.48 68.97 69.22 70.20 71.65 72.65 73.37 74.36 74.95 75.41 75.80 75.25 74.96
55.17 54.88 53.67 55.30 53.40 53.95 54.77 55.07 48.68 47.93 48.25 59.10 62.26 63.61 62.20 63.03 64.92 64.95 66.64 69.10 69.49 69.15 70.58 71.85 72.63 73.37 73.76 74.59 74.98 75.36 75.17 74.78
51.62 55.05 54.98 52.02 52.13 54.52 51.26 48.38 47.73 45.09 49.71 62.79 64.56 65.17 65.18 62.80 63.49 65.43 65.53 69.94 70.18 70.05 70.46 71.84 72.69 73.19 73.53 74.27 74.66 75.27 75.61 75.41
48.84 52.40 55.84 51.48 53.20 52.55 51.57 53.09 49.76 47.14 50.75 61.97 64.21 65.29 65.95 64.96 62.94 63.18 65.23 67.60 69.17 70.88 71.25 71.75 72.62 74.64 73.75 74.43 74.44 75.25 75.76 75.09
46.40 47.30 52.90 52.09 53.15 54.08 51.32 48.07 46.13 49.21 48.24 59.56 61.71 63.07 65.46 65.11 65.37 64.18 66.96 67.84 68.46 70.89 71.46 71.41 73.03 74.00 74.99 74.60 75.91 75.33 75.52 75.39
52.64 52.53 53.06 51.60 48.96 50.22 52.83 53.28 49.23 51.47 52.70 59.01 62.27 62.19 62.64 62.82 65.41 65.51 65.64 66.24 69.86 69.59 69.85 69.65 71.87 74.22 74.93 75.46 75.72 76.05 75.94 75.64
50.05 52.09 51.79 49.89 51.64 53.09 53.20 54.40 51.15 52.25 49.72 63.11 63.77 63.12 61.57 61.58 61.86 62.11 62.97 63.37 64.76 66.37 69.30 68.83 69.35 70.88 74.03 74.49 74.68 75.73 74.43 71.86
47.70 50.63 51.32 48.17 50.88 51.65 54.44 54.92 54.90 52.44 59.02 63.51 62.73 60.78 61.68 60.68 60.30 60.27 60.08 60.68 61.59 62.86 63.44 66.10 68.06 69.61 70.61 73.42 75.04 73.79 74.43 74.60
47.33 49.49 42.64 51.16 56.58 56.01 54.20 55.02 56.78 57.27 58.65 61.88 63.02 61.73 60.94 62.06 61.04 59.26 59.32 60.34 60.49 61.97 64.27 66.68 68.42 69.46 70.92 70.84 74.19 74.57 74.17 73.65
46.12 46.00 48.48 49.44 52.61 53.24 52.20 52.99 55.85 57.11 58.19 63.13 62.72 61.09 59.04 61.57 62.06 61.01 60.15 60.22 62.12 63.24 63.08 65.11 65.93 68.52 70.48 71.55 72.38 73.49 73.25 74.07
48.50 44.00 41.73 49.88 56.42 58.12 56.27 48.48 56.46 59.18 59.33 61.42 62.69 58.72 58.07 61.60 62.83 62.41 62.34 62.71 63.50 64.71 64.31 64.18 64.06 66.67 69.92 71.13 70.83 70.97 72.24 72.46
47.84 45.90 48.30 55.52 57.63 57.83 46.73 51.78 60.84 60.45 61.83 62.56 61.20 62.55 62.61 63.49 62.83 63.67 64.09 63.89 64.88 65.24 63.91 62.57 62.19 68.04 68.70 68.92 68.24 70.51 72.24 71.98
48.06 45.62 43.12 57.21 55.90 49.67 58.36 61.04 62.22 61.98 62.32 61.59 63.44 62.30 62.30 62.70 63.09 63.52 63.73 64.14 64.40 63.76 63.77 64.43 63.30 62.57 63.50 63.59 66.08 68.04 69.09 68.02
50.07 50.19 57.85 58.60 56.89 59.36 59.86 60.07 61.24 63.31 63.76 64.48 62.75 61.50 62.37 62.29 62.40 62.87 62.98 62.86 63.70 63.12 63.25 64.23 64.76 64.21 60.78 60.56 62.56 64.85 64.32 63.03
52.17 53.45 54.77 56.59 58.14 58.69 59.65 60.25 61.94 63.35 63.05 62.62 61.56 61.95 61.39 61.88 61.00 60.91 62.59 61.77 61.93 62.15 62.43 62.44 64.01 63.51 62.32 61.47 60.91 60.47 60.27 59.66
53.13 54.12 55.55 57.39 58.30 58.24 59.99 61.41 62.55 63.53 63.07 62.41 62.41 61.39 61.37 60.80 61.22 60.72 61.72 61.48 61.70 60.80 61.08 61.75 62.58 63.24 62.81 60.76 61.52 59.60 58.53 57.94
50.28 55.38 56.89 56.85 58.90 59.95 59.76 61.67 62.83 62.64 61.94 61.89 61.74 61.01 60.95 60.61 61.05 61.40 60.91 60.69 60.76 61.43 61.46 61.73 61.77 61.73 61.89 63.49 62.86 59.82 57.44 57.94
55.09 57.63 58.14 59.19 59.62 61.08 61.33 62.69 63.17 62.74 61.88 60.77 61.50 61.40 61.18 59.81 59.07 58.29 60.41 60.61 60.65 60.48 60.67 60.62 60.48 60.38 62.11 62.88 60.22 59.04 58.19 57.94
MSLP
1003.18 1003.25 1003.32 1002.88 1003.44 1005.81 1004.13 1004.26 1004.80 1005.89 1004.20 1005.23 1005.26 1005.58 1005.99 1006.73 1006.65 1006.31 1006.48 1006.80 1006.59 1007.20 1008.17 1009.18 1010.11 1011.26 1012.44 1013.25 1014.40 1015.05 1015.59 1016.15
1003.12 1003.88 1003.77 1004.32 1007.40 1005.03 1003.64 1004.34 1005.61 1005.17 1006.10 1005.05 1005.13 1005.18 1006.32 1005.99 1005.48 1005.25 1006.42 1006.79 1006.53 1006.79 1007.74 1008.84 1009.75 1010.66 1011.96 1012.78 1013.61 1014.35 1014.89 1015.54
1004.69 1003.95 1003.81 1004.44 1006.57 1006.58 1004.86 1004.38 1006.16 1006.27 1006.35 1004.87 1005.41 1005.82 1006.39 1006.51 1006.32 1006.49 1006.31 1006.88 1007.12 1006.63 1007.45 1008.43 1009.28 1009.95 1011.09 1012.14 1012.85 1013.67 1014.28 1014.76
1004.30 1005.29 1005.69 1007.16 1007.98 1008.76 1006.37 1007.11 1007.56 1007.84 1006.63 1005.73 1005.81 1006.28 1006.51 1007.18 1007.59 1008.49 1007.77 1006.01 1006.86 1007.06 1007.56 1008.29 1009.13 1009.61 1010.25 1011.30 1012.17 1012.88 1013.47 1014.29
1003.73 1004.77 1005.81 1006.84 1007.69 1008.79 1009.14 1009.16 1007.75 1008.00 1006.45 1005.91 1006.16 1006.36 1007.31 1007.81 1007.96 1008.66 1008.53 1007.63 1007.72 1008.00 1008.44 1008.69 1009.23 1009.92 1010.29 1010.85 1011.53 1012.14 1012.97 1013.65
1004.97 1006.34 1007.01 1006.69 1006.49 1005.97 1006.85 1008.72 1008.84 1008.45 1008.14 1006.45 1006.50 1007.31 1007.97 1009.28 1009.55 1009.13 1009.39 1009.33 1009.67 1008.03 1009.29 1009.95 1010.10 1010.21 1010.73 1010.78 1011.37 1011.76 1012.37 1013.05
1004.65 1005.25 1005.89 1006.19 1006.47 1005.51 1004.32 1004.48 1006.38 1007.41 1007.43 1006.45 1007.28 1008.42 1009.76 1010.87 1011.08 1011.39 1011.53 1011.69 1010.47 1009.84 1010.76 1011.29 1011.19 1010.55 1010.93 1011.36 1011.49 1011.95 1012.29 1012.76
1004.88 1004.40 1004.06 1004.33 1004.78 1003.57 1003.56 1004.12 1006.12 1007.84 1006.60 1006.63 1008.50 1009.18 1010.38 1011.68 1012.53 1012.89 1012.88 1012.95 1012.51 1012.22 1012.43 1012.09 1011.97 1011.86 1011.55 1012.14 1012.45 1012.66 1013.25 1013.38
1004.56 1004.63 1004.52 1003.80 1003.36 1003.23 1003.42 1003.80 1005.25 1005.03 1006.41 1006.79 1007.98 1009.75 1011.01 1012.07 1012.92 1013.73 1014.03 1014.05 1014.09 1013.77 1013.75 1013.87 1013.71 1013.22 1013.01 1012.26 1012.52 1013.16 1013.48 1013.76
1005.53 1004.97 1004.44 1003.06 1003.91 1004.03 1003.96 1004.50 1004.83 1006.20 1005.52 1006.89 1008.94 1010.72 1011.82 1012.69 1013.24 1014.24 1014.69 1014.82 1014.93 1014.65 1014.25 1014.11 1013.85 1013.72 1013.41 1013.00 1012.72 1013.28 1013.43 1013.83
1005.75 1004.83 1004.20 1003.74 1003.52 1003.95 1003.95 1004.15 1004.43 1004.77 1004.96 1007.25 1009.41 1011.17 1012.29 1013.10 1013.71 1014.37 1014.98 1015.13 1015.19 1015.06 1014.72 1014.69 1014.58 1014.24 1013.41 1012.82 1013.30 1013.11 1013.33 1013.88
1006.01 1005.18 1004.31 1004.05 1004.83 1005.35 1005.33 1005.09 1004.92 1004.74 1005.75 1006.99 1009.06 1009.97 1011.94 1013.06 1013.39 1014.08 1014.68 1014.97 1014.97 1014.63 1014.73 1014.82 1014.97 1014.62 1014.12 1013.90 1013.79 1014.04 1013.95 1014.28
1005.64 1005.45 1004.93 1004.93 1005.64 1006.03 1006.20 1006.20 1005.64 1006.02 1005.57 1006.57 1008.34 1010.27 1011.88 1012.82 1013.46 1013.83 1014.12 1014.35 1014.43 1014.65 1015.05 1015.45 1015.29 1014.63 1014.66 1014.88 1014.99 1014.67 1014.04 1014.43
1005.52 1005.68 1005.61 1006.17 1006.28 1006.44 1007.24 1006.97 1006.59 1006.09 1006.62 1008.20 1009.09 1011.06 1012.12 1012.78 1013.19 1013.52 1013.81 1014.10 1014.47 1014.69 1015.02 1015.39 1015.47 1015.53 1015.73 1015.61 1015.23 1014.71 1014.79 1015.62
1005.93 1006.03 1006.83 1007.07 1007.04 1007.27 1007.83 1007.87 1007.67 1007.34 1007.77 1008.54 1009.69 1011.17 1012.02 1012.76 1013.41 1013.78 1014.21 1014.47 1014.73 1014.83 1015.29 1015.55 1015.67 1015.79 1016.07 1016.38 1016.27 1015.99 1016.31 1016.49
1006.63 1006.23 1006.19 1006.49 1007.35 1007.74 1007.93 1008.13 1008.11 1008.33 1008.87 1009.56 1010.22 1011.32 1012.24 1012.95 1013.72 1014.40 1014.57 1014.81 1014.86 1015.38 1015.73 1015.93 1016.09 1016.01 1016.27 1016.60 1016.88 1016.91 1016.94 1017.21
1006.30 1006.53 1006.42 1006.60 1007.16 1007.37 1007.84 1008.41 1008.43 1008.62 1009.33 1009.86 1010.62 1011.59 1012.43 1013.31 1013.99 1014.80 1014.89 1015.03 1015.01 1015.81 1015.99 1016.15 1016.22 1016.07 1016.53 1016.93 1017.15 1017.31 1017.51 1017.89
1005.43 1005.81 1006.21 1006.01 1006.85 1007.52 1007.87 1008.49 1008.74 1009.26 1010.00 1010.69 1011.22 1012.08 1012.89 1013.63 1014.41 1014.75 1014.86 1015.04 1015.60 1015.93 1016.19 1016.33 1016.35 1016.49 1016.83 1016.90 1017.20 1017.49 1017.68 1017.94
1006.00 1006.36 1006.19 1006.48 1006.94 1007.53 1008.01 1008.58 1009.10 1009.88 1010.57 1011.17 1011.77 1012.48 1013.13 1014.28 1014.81 1015.10 1015.27 1015.45 1015.86 1016.17 1016.51 1016.75 1016.80 1016.89 1016.93 1016.94 1017.23 1017.47 1017.49 1017.69
Wind_Speed
2 10 10 8 12 25 11 1 12 5 17 11 4 10 5 13 20 23 22 17 18 18 16 14 14 15 14 14 14 14 15 12
11 8 14 5 17 10 8 4 11 5 3 5 9 9 2 8 15 17 18 20 17 18 17 15 15 15 15 14 14 13 13 13
21 12 16 8 11 16 12 4 2 1 3 10 9 8 7 6 2 9 20 23 10 16 16 16 15 15 16 14 14 13 12 12
10 12 12 6 9 20 10 9 6 9 6 10 8 9 7 9 6 8 9 4 14 11 16 14 14 12 15 14 14 13 12 11
8 15 20 10 19 11 9 6 6 10 2 5 7 8 7 9 9 5 5 4 9 9 9 11 13 11 11 13 13 13 12 12
4 5 12 20 19 18 17 12 10 8 13 7 5 8 11 9 6 3 6 7 15 14 11 10 10 10 10 10 11 11 12 12
8 9 18 10 7 32 11 10 1 7 17 8 7 6 9 6 5 8 9 9 9 3 7 3 8 8 10 9 7 6 9 12
13 16 14 13 18 17 7 11 7 22 20 22 13 8 7 8 6 4 6 7 9 13 11 5 2 3 6 9 9 8 5 5
12 1 11 11 14 12 17 1 12 6 6 8 11 10 6 6 8 7 7 8 7 7 5 4 4 3 5 4 5 8 5 9
12 13 14 3 7 11 5 12 3 14 4 14 11 8 7 5 8 7 6 6 5 4 5 5 3 2 1 3 1 4 8 8
11 12 12 12 4 7 7 12 12 12 4 14 10 10 7 6 5 7 4 3 4 3 4 5 4 6 4 4 3 4 3 7
10 12 10 7 12 8 6 11 16 9 6 5 11 9 6 5 5 6 5 5 3 6 6 5 5 7 5 4 4 3 5 4
10 11 12 10 9 3 8 6 11 13 7 9 4 7 12 9 7 6 5 6 6 7 8 6 6 5 7 7 6 2 7 5
9 11 14 6 4 4 7 7 12 12 12 9 15 11 10 8 7 6 7 8 7 8 8 8 7 6 6 7 7 8 10 8
11 6 5 3 5 1 6 8 7 9 4 7 9 9 9 8 7 6 6 8 7 8 8 9 9 8 8 6 7 7 8 8
11 12 11 7 2 5 5 7 6 3 4 7 9 10 10 7 7 6 6 6 8 7 7 8 9 11 10 8 7 8 9 9
11 14 13 7 10 8 7 6 7 6 6 6 9 8 8 8 7 7 6 7 8 6 6 7 7 9 10 9 8 9 9 8
11 8 8 8 8 5 6 7 7 7 5 4 6 9 8 8 7 6 7 8 8 6 6 6 7 8 8 7 7 8 8 6
9 12 7 3 3 6 7 8 8 8 8 8 8 9 10 9 8 6 7 8 8 8 8 7 6 7 6 7 9 8 8 8
Wind_Direction
240 228 254 238 214 233 253 255 293 121 119 75 124 136 190 187 227 212 198 207 215 185 188 180 190 179 191 183 189 197 199 201
178 240 240 121 332 260 225 195 241 149 18 86 25 76 27 292 227 214 173 199 210 187 186 183 193 183 190 193 187 198 206 197
308 206 257 196 167 239 239 59 13 143 315 59 74 67 70 51 51 336 159 223 200 198 184 181 194 190 184 194 191 195 199 199
228 327 81 358 340 323 344 6 96 298 138 67 44 77 58 90 47 113 305 262 195 200 192 188 190 213 183 189 195 194 195 196
206 228 175 153 209 210 102 297 349 336 90 73 92 79 80 90 93 17 306 311 267 196 220 196 198 196 224 186 196 192 194 193
146 284 285 302 325 186 157 204 141 221 257 162 147 97 82 64 129 220 301 235 247 188 184 219 224 216 209 221 195 201 192 201
181 203 209 210 324 290 236 282 306 67 301 125 103 96 83 81 4 71 67 26 350 202 97 169 221 240 189 213 196 213 221 202
292 286 270 273 244 287 259 278 104 180 204 171 133 114 100 94 71 72 49 53 40 42 28 29 231 250 207 194 227 190 209 257
272 227 317 278 277 254 299 29 323 294 350 94 126 117 99 90 70 47 48 39 24 54 47 26 1 3 359 34 176 217 233 225
279 298 249 18 21 326 277 292 204 311 332 143 73 114 98 45 103 75 38 33 22 18 46 24 335 105 27 279 91 218 219 234
267 256 267 285 235 245 277 303 279 310 254 108 121 135 116 107 79 87 78 36 358 52 34 19 352 325 331 350 199 210 211 230
259 272 270 343 60 31 351 272 272 236 259 151 169 223 108 151 118 111 112 104 53 52 64 32 355 285 204 196 170 151 146 104
237 242 258 72 87 19 266 357 329 284 141 166 129 61 131 140 124 109 87 68 81 76 72 46 8 28 94 122 109 122 75 74
237 260 266 54 152 268 35 322 334 314 80 83 110 121 137 136 140 118 96 79 50 61 57 61 66 69 69 55 23 38 64 57
305 9 102 15 341 340 318 303 306 332 350 99 140 151 152 141 141 120 99 88 65 62 62 51 54 57 69 45 44 60 75 73
279 268 277 238 211 276 272 274 279 200 173 173 155 153 146 146 151 126 112 104 83 65 64 68 60 63 66 63 61 69 71 69
251 255 271 218 236 256 204 241 252 162 170 194 149 156 147 148 133 139 142 120 99 105 89 74 64 74 83 75 78 84 83 78
266 282 334 255 156 193 218 209 207 172 159 145 161 143 151 139 135 149 123 115 116 108 102 90 88 83 81 87 108 114 99 78
249 271 269 236 309 162 197 192 175 169 164 166 151 154 132 142 153 141 143 136 139 132 121 117 105 94 84 106 99 88 81 97